Showing default

YAOGAN-43 03A, 61617

Orbit data source: Space-Track

YAOGAN-43 03A, 61617 is a payload satellite owned by PLA GAD (CN) in LEO that was launched on Wed, 23 Oct 2024 UTC via a CHANG ZHENG 2C launch vehicle from the Xichang Space Center, China (XSC). Payload-class satellites include a variety of spacecraft equipped with specific instruments for various scientific and technological missions. These include communications satellites like Starlink; space stations such as the ISS; scientific satellites like the Hubble; Earth observation satellites from companies like Planet Labs, Umbra, and HawkEye 360; GPS; miniature CubeSats for education and research; and military/defense satellites.

Loading next visibility...
Identifier
61617, 2024-190A
Orbit
LEO
Country
Flag of CNCN / PRC
Related business
Manufacturer
SAST
Mission
Operational Defense Communications
Bus & Motor
Unknown
Mass
~300 kg wet, ~300 kg dry
Launch date (UTC)
2024-10-23 (2 years ago)
Launch vehicle
CHANG ZHENG 2C
Launch site
Xichang Space Center, China (XSC)
Object type
Payload
Rocket body
Debris
Shape & HBR
Box + 2 Pan, 2.5 m
Radar Cross Section
11.063 m², Large (>1 m²)

Expand to show TLE details & history
Last TLE update: 13 hours ago

TLE from 13 hours ago
0 YAOGAN-43 03A
1 61617U 24190A   26149.82602010  .00009556  00000-0  39627-3 0  9993
2 61617  34.9914 313.2140 0004590 172.0703 188.0085 15.23113403 89061
Epoch: 2026-05-29T19:49Z
TLE epoch observation values (Epoch: 2026-05-29T19:49:28.136Z)
Latitude
-0°
Longitude
128.49593°
Altitude
498.486 km
Speed
7.616 km/s
True Right ascension
20h 52m 51s
True Declination
0° 00' 00"
Sunlit
Object was in partial shadow at epoch
Visualization orbit readout
Latitude
Unknown
Longitude
Unknown
Altitude
Unknown
Speed
Unknown
Apparent Right ascension
Unknown
Apparent Declination
Unknown
Sunlit
N/A
Visualization observer readout
Local Sidereal Time
18:41:30
Azimuth
Unknown
Elevation
Unknown
Doppler factor
Unknown
Orbital elements
Apogee altitude
502.865 km
Perigee altitude
496.551 km
Semi-major axis
6,877.845 km
Eccentricity
0.00046
Inclination
34.9914°
RAAN
313.214°
Arg. of periapsis
172.0703°
True anomaly
188.00118°
Mean anomaly
188.0085°
Eccentric anomaly
188.00484°
Mean motion
3.80509 °/min
Orbital period
94.61 mins
BSTAR
0.00039627
Loading maneuver chart data...
Computing Atmospheric mass density...
Loading historical data...
Loading historical data...
Loading historical data...
Loading historical data...
Loading historical data...
Loading historical data...
Loading historical data...
Other satellites on launch #190 in the year 2024 (2024-10-23 UTC)

Documentation

Showing up to 5 results
|